This demonstration page uses our WeatherBlox Daily Observations layout. Learn more.

Left ArrowRight Arrow

Hourly Observations for August 8, 2015

Temp ( °F °C ) Dew Point ( °F °C ) Humidity (%) Winds ( mph kmh ) Pressure ( in mb ) Visibility ( mi km ) Precip ( " mm )
12:53 am 00:53 Clear 88 31.1 60 15.6 39 39 SSE 17 28 29.72 1006 10 16 0.00 0.00
1:53 am 01:53 Clear 86 30 59 15 40 40 SSE 13 20 29.71 1006 10 16 0.00 0.00
2:53 am 02:53 Clear 84 28.9 60 15.6 44 44 SSE 14 22 29.70 1006 10 16 0.00 0.00
3:53 am 03:53 Clear 83 28.3 60 15.6 46 46 SSE 14 22 29.70 1006 10 16 0.00 0.00
4:53 am 04:53 Clear 82 27.8 59 15 46 46 SE 12 19 29.70 1006 10 16 0.00 0.00
5:53 am 05:53 Clear 81 27.2 59 15 47 47 SE 13 20 29.70 1006 10 16 0.00 0.00
6:53 am 06:53 Clear 80 26.7 59 15 49 49 SE 12 19 29.71 1006 10 16 0.00 0.00
7:53 am 07:53 Sunny 79 26.1 60 15.6 52 52 SSE 9 15 29.74 1007 10 16 0.00 0.00
8:53 am 08:53 Sunny 83 28.3 62 16.7 49 49 SSE 17 28 29.75 1008 10 16 0.00 0.00
9:53 am 09:53 Sunny 87 30.6 62 16.7 43 43 SSE 13 20 29.75 1008 10 16 0.00 0.00
10:53 am 10:53 Sunny 92 33.3 58 14.4 32 32 Calm 29.75 1007 10 16 0.00 0.00
11:53 am 11:53 Sunny 94 34.4 56 13.3 28 28 S 9 15 29.75 1007 10 16 0.00 0.00
12:53 pm 12:53 Sunny 99 37.2 54 12.2 22 22 SSE 9 15 29.73 1007 10 16 0.00 0.00
1:53 pm 13:53 Sunny 102 38.9 54 12.2 20 20 S 15 24 29.71 1006 10 16 0.00 0.00
2:53 pm 14:53 Sunny 104 40 54 12.2 19 19 undefined N/A 29.69 1005 10 16 0.00 0.00
3:53 pm 15:53 Sunny 104 40 53 11.7 18 18 SE 7 11 29.67 1005 10 16 0.00 0.00
4:53 pm 16:53 Sunny 105 40.6 53 11.7 18 18 SE 12 19 29.66 1004 10 16 0.00 0.00
5:53 pm 17:53 Sunny 104 40 52 11.1 18 18 S 14 22 29.65 1004 10 16 0.00 0.00
6:28 pm 18:28 Sunny 100 38 54 12 21 21 W 15 24 29.56 1001 10 16 0.00 0.00
6:53 pm 18:53 Sunny 101 38.3 53 11.7 20 20 WSW 8 13 29.64 1004 10 16 0.00 0.00
7:31 pm 19:31 Sunny with Nearby Thunderstorms 103 39.4 53 11.7 19 19 SW 5 7 29.53 1000 10 16 0.00 0.00
7:53 pm 19:53 Sunny with Nearby Thunderstorms 97 36.1 60 15.6 29 29 SE 13 20 29.67 1005 10 16 0.00 0.00
8:19 pm 20:19 Sunny 96 35.6 59 15 29 29 SE 15 24 29.59 1002 10 16 0.00 0.00
8:53 pm 20:53 Clear 96 35.6 58 14.4 28 28 SE 9 15 29.67 1005 10 16 0.00 0.00
9:53 pm 21:53 Clear 94 34.4 59 15 31 31 SSE 9 15 29.69 1005 10 16 0.00 0.00
10:53 pm 22:53 Clear 92 33.3 59 15 33 33 SSE 9 15 29.72 1007 10 16 0.00 0.00
11:53 pm 23:53 Clear 90 32.2 60 15.6 37 37 SSE 15 24 29.72 1007 10 16 0.00 0.00

Powered by AerisWeather